Bradford, PA

11:45 PM EDT on May 26, 2018 (GMT -0400)
Bradford Regional

Weather History for KBFD - March, 2012

Change the Weather History Date:

Thursday, March 22, 2012

  Actual Average Record
Temperature  
Mean Temperature 58 °F 34 °F  
Max Temperature 77 °F 44 °F 77 °F (2012)
Min Temperature 42 °F 24 °F -4 °F (1988)
Degree Days  
Heating Degree Days 6 26  
Month to date heating degree days 647  
Since 1 July heating degree days 6217  
Cooling Degree Days 0 0  
Month to date cooling degree days 0  
Year to date cooling degree days 0  
Growing Degree Days 8 (Base 50)    
Moisture  
Dew Point 47 °F    
Average Humidity 81    
Maximum Humidity 97    
Minimum Humidity 27    
Precipitation  
Precipitation 0.00 in 0.12 in 0.62 in (1968)
Month to date precipitation 2.31  
Year to date precipitation 7.95  
Sea Level Pressure  
Sea Level Pressure 30.21 in    
Wind  
Wind Speed 2 mph (SE)    
Max Wind Speed 9 mph    
Max Gust Speed -    
Visibility 4 miles    
Events Fog    
T = Trace of Precipitation, MM = Missing Value Source: NWS Daily Summary

Daily Weather History Graph

Daily Weather History Graph

Search for Another Location

Airport or City:

Astronomy

Mar. 22, 2012 Rise Set
Actual Time 7:13 AM EDT 7:29 PM EDT
Civil Twilight 6:45 AM EDT 7:57 PM EDT
Nautical Twilight 6:13 AM EDT 8:30 PM EDT
Astronomical Twilight 5:39 AM EDT 9:03 PM EDT
Moon 6:51 AM EDT (3/22) 7:53 PM EDT (3/22)
Length of Visible Light 13h 11m
Length of Day
12h 15m
New Moon, 0% of the Moon is Illuminated
Mar 22
New Moon
Mar 30
First Quarter
Apr 6
Full
Apr 13
Last Quarter
Apr 21
New

Hourly Weather History & Observations

Time (EDT) Temp. Windchill Dew Point Humidity Pressure Visibility Wind Dir Wind Speed Gust Speed Precip Events Conditions
12:53 AM 54.0 °F - 48.9 °F 83% 30.24 in 10.0 mi SSE 5.8 mph - N/A   Clear
1:53 AM 53.1 °F - 48.9 °F 86% 30.23 in 9.0 mi Calm Calm - N/A   Clear
2:22 AM 50.0 °F - 46.9 °F 89% 30.25 in 7.0 mi Calm Calm - N/A   Mostly Cloudy
2:32 AM 50.0 °F - 46.9 °F 89% 30.24 in 5.0 mi Calm Calm - N/A   Scattered Clouds
2:53 AM 48.9 °F - 46.9 °F 93% 30.22 in 4.0 mi Calm Calm - N/A   Clear
3:02 AM 48.0 °F - 46.0 °F 93% 30.24 in 1.2 mi Calm Calm - N/A   Clear
3:07 AM 48.9 °F - 46.0 °F 90% 30.24 in 0.2 mi Calm Calm - N/A Fog Fog
3:32 AM 46.9 °F - 44.1 °F 90% 30.23 in 0.2 mi NNW 3.5 mph - N/A Fog Fog
3:37 AM 46.9 °F - 45.0 °F 93% 30.23 in 1.0 mi NW 3.5 mph - N/A   Mist
3:39 AM 46.9 °F - 45.0 °F 93% 30.23 in 2.0 mi NW 3.5 mph - N/A   Scattered Clouds
3:46 AM 48.9 °F - 46.0 °F 90% 30.23 in 4.0 mi Calm Calm - N/A   Scattered Clouds
3:51 AM 46.4 °F - 44.6 °F 93% 30.23 in 1.8 mi Calm Calm - N/A   Scattered Clouds
3:53 AM 46.9 °F - 45.0 °F 93% 30.22 in 1.5 mi Calm Calm - N/A   Scattered Clouds
4:00 AM 48.0 °F - 46.0 °F 93% 30.23 in 0.2 mi Calm Calm - N/A Fog Fog
4:21 AM 45.0 °F - 43.0 °F 93% 30.22 in 0.2 mi Calm Calm - N/A Fog Fog
4:53 AM 44.1 °F 41.5 °F 43.0 °F 96% 30.21 in 0.2 mi SSE 4.6 mph - N/A Fog Fog
5:04 AM 44.1 °F - 42.1 °F 93% 30.22 in 0.5 mi Calm Calm - N/A Fog Fog
5:12 AM 43.0 °F - 41.0 °F 93% 30.23 in 0.5 mi Calm Calm - N/A Fog Fog
5:20 AM 43.0 °F - 41.0 °F 93% 30.23 in 0.2 mi Calm Calm - N/A Fog Fog
5:30 AM 45.0 °F - 42.1 °F 90% 30.23 in 0.5 mi Calm Calm - N/A Fog Fog
5:53 AM 44.1 °F 42.5 °F 41.0 °F 89% 30.22 in 0.5 mi SE 3.5 mph - N/A Fog Fog
6:03 AM 42.1 °F - 39.9 °F 92% 30.23 in 1.2 mi Calm Calm - N/A   Mostly Cloudy
6:09 AM 42.1 °F - 39.9 °F 92% 30.23 in 0.2 mi Calm Calm - N/A Fog Fog
6:53 AM 44.1 °F - 41.0 °F 89% 30.22 in 0.2 mi Calm Calm - N/A Fog Fog
7:24 AM 45.0 °F 43.5 °F 44.1 °F 97% 30.23 in 0.5 mi SE 3.5 mph - N/A Fog Fog
7:35 AM 46.9 °F - 45.0 °F 93% 30.23 in 1.8 mi Calm Calm - N/A   Overcast
7:42 AM 48.0 °F - 46.0 °F 93% 30.23 in 2.5 mi SE 3.5 mph - N/A   Overcast
7:45 AM 48.0 °F - 46.0 °F 93% 30.23 in 3.0 mi SE 3.5 mph - N/A   Overcast
7:53 AM 48.0 °F - 46.0 °F 93% 30.22 in 3.0 mi SE 3.5 mph - N/A   Overcast
8:04 AM 51.1 °F - 48.9 °F 92% 30.24 in 2.5 mi South 3.5 mph - N/A   Overcast
8:17 AM 53.1 °F - 52.0 °F 96% 30.24 in 1.5 mi South 3.5 mph - N/A   Overcast
8:24 AM 54.0 °F - 52.0 °F 93% 30.24 in 1.0 mi Variable 4.6 mph - N/A   Overcast
8:33 AM 54.0 °F - 52.0 °F 93% 30.24 in 0.8 mi South 3.5 mph - N/A   Overcast
8:53 AM 54.0 °F - 53.1 °F 97% 30.23 in 0.8 mi Variable 3.5 mph - N/A   Overcast
9:14 AM 55.0 °F - 53.1 °F 93% 30.25 in 1.0 mi Calm Calm - N/A   Overcast
9:44 AM 55.0 °F - 53.1 °F 93% 30.26 in 2.5 mi Calm Calm - N/A   Overcast
9:53 AM 55.0 °F - 54.0 °F 96% 30.24 in 3.0 mi Calm Calm - N/A   Overcast
10:01 AM 55.9 °F - 54.0 °F 93% 30.25 in 3.0 mi Calm Calm - N/A   Overcast
10:53 AM 55.9 °F - 54.0 °F 93% 30.23 in 4.0 mi East 4.6 mph - N/A   Overcast
11:04 AM 55.9 °F - 54.0 °F 93% 30.24 in 4.0 mi Variable 3.5 mph - N/A   Overcast
11:42 AM 61.0 °F - 53.1 °F 75% 30.24 in 7.0 mi Calm Calm - N/A   Partly Cloudy
11:53 AM 63.0 °F - 53.1 °F 70% 30.22 in 9.0 mi Calm Calm - N/A   Clear
12:53 PM 68.0 °F - 52.0 °F 56% 30.19 in 10.0 mi Calm Calm - N/A   Clear
1:53 PM 72.0 °F - 48.0 °F 43% 30.17 in 10.0 mi East 9.2 mph - N/A   Clear
2:53 PM 73.9 °F - 46.9 °F 38% 30.14 in 10.0 mi Variable 5.8 mph - N/A   Clear
3:53 PM 75.9 °F - 46.0 °F 35% 30.13 in 10.0 mi Variable 3.5 mph - N/A   Clear
4:53 PM 75.9 °F - 39.9 °F 27% 30.13 in 10.0 mi North 3.5 mph - N/A   Clear
5:53 PM 75.9 °F - 41.0 °F 29% 30.12 in 10.0 mi Calm Calm - N/A   Clear
6:53 PM 73.9 °F - 39.9 °F 29% 30.13 in 10.0 mi Calm Calm - N/A   Clear
7:53 PM 64.9 °F - 45.0 °F 48% 30.14 in 10.0 mi Calm Calm - N/A   Clear
8:53 PM 62.1 °F - 44.1 °F 52% 30.15 in 10.0 mi Calm Calm - N/A   Clear
9:53 PM 62.6 °F - 44.6 °F 52% 30.18 in 10.0 mi North 5.8 mph - N/A   Clear
10:53 PM 61.0 °F - 46.0 °F 58% 30.17 in 10.0 mi NNW 3.5 mph - N/A   Clear
11:53 PM 55.0 °F - 46.9 °F 74% 30.15 in 10.0 mi Calm Calm - N/A   Clear